Regional Weather Roundup
Issued by NWS Charleston, WV

Home | Current Version | Previous Version | Graphics & Text | Print | Product List | Glossary On
Versions: 1 2 3 4 5 6 7 8 9 10 11 12 13 14 15 16 17 18 19 20 21 22 23 24 25 26 27 28 29 30 31 32 33 34 35 36 37 38 39 40 41 42 43 44 45 46 47 48 49 50
000
ASUS41 KRLX 210710
RWRRLX
West Virginia Regional Weather Roundup
National Weather Service Charleston WV
300 AM EDT SAT OCT 21 2017

Note: "fair" indicates few or no clouds below 12,000 feet with no
significant weather and/or obstructions to visibility.

WVZ003-210800-
Northern Panhandle of West Virginia

CITY           SKY/WX    TMP DP  RH WIND       PRES   REMARKS
WHEELING       CLEAR     53  38  56 SE3       30.25S
$$

WVZ009-210800-
Northwest West Virginia

CITY           SKY/WX    TMP DP  RH WIND       PRES   REMARKS
PARKERSBURG    CLEAR     46  43  89 CALM      30.26F
$$

WVZ006-210800-
Western West Virginia

CITY           SKY/WX    TMP DP  RH WIND       PRES   REMARKS
HUNTINGTON     CLEAR     52  49  89 CALM      30.22S
$$

WVZ015-210800-
West Central West Virginia

CITY           SKY/WX    TMP DP  RH WIND       PRES   REMARKS
CHARLESTON     PTCLDY    47  45  93 CALM      30.23F
$$

WVZ022-031-210800-
North Central West Virginia

CITY           SKY/WX    TMP DP  RH WIND       PRES   REMARKS
CLARKSBURG     CLEAR     47  42  83 CALM      30.26S
MORGANTOWN     CLEAR     47  41  80 CALM      30.27F
$$

WVZ025-035-042-045-210800-
Southern West Virginia

CITY           SKY/WX    TMP DP  RH WIND       PRES   REMARKS
BECKLEY        CLEAR     57  44  62 SE12      30.28S
LOGAN            N/A     55  50  82 CALM      30.24S
BLUEFIELD      CLEAR     57  42  57 S5        30.30S
LEWISBURG      CLEAR     44  40  87 N3        30.31F
$$

WVZ047-210800-
Northern Mountains of West Virginia

CITY           SKY/WX    TMP DP  RH WIND       PRES   REMARKS
ELKINS         CLEAR     39  37  92 CALM      30.30F
$$

WVZ052-210800-
Eastern Panhandle of West Virginia

CITY           SKY/WX    TMP DP  RH WIND       PRES   REMARKS
MARTINSBURG    CLEAR     43  41  93 S5        30.27F
PETERSBURG     CLEAR     41  41  98 CALM      30.31R FOG
$$



USA.gov is the U.S. government's official web portal to all federal, state and local government web resources and services.